Stations météo

réclame
Mon MeteoGroup
Exeter Airport No. 2, Grande-Bretagne (3844): Température de l'air & dewpoint: 14.10.2018 03:00:00 - 20.10.2018 03:00:00 (BST)Exeter Airport No. 2, Grande-Bretagne (3844): Vitesse du vent: 14.10.2018 03:00:00 - 20.10.2018 03:00:00 (BST)Exeter Airport No. 2, Grande-Bretagne (3844): Direction du vent: 14.10.2018 03:00:00 - 20.10.2018 03:00:00 (BST)Exeter Airport No. 2, Grande-Bretagne (3844): reduced air pressure: 14.10.2018 03:00:00 - 20.10.2018 03:00:00 (BST)Exeter Airport No. 2, Grande-Bretagne (3844): visibility: 14.10.2018 03:00:00 - 20.10.2018 03:00:00 (BST)Exeter Airport No. 2, Grande-Bretagne (3844): Ensoleillement: 14.10.2018 03:00:00 - 20.10.2018 03:00:00 (BST)Exeter Airport No. 2, Grande-Bretagne (3844): Quantités de précipitations: 14.10.2018 03:00:00 - 20.10.2018 03:00:00 (BST)
Date & Time tt [°C] td [°C] ff [km/h] ff [knt] dd ppp [hPa] vv [km] sd [min] rr [mm]
20.10.2018 03:00:00 5,4 5,4 2 1 ENE 1029,7 0,1 0 0,0
20.10.2018 02:00:00 6,6 6,6 4 2 NNE 1029,8 1,4 0 0,0
20.10.2018 01:00:00 4,8 4,4 2 1 NNE 1029,9 0,1 - 0,0
20.10.2018 00:00:00 7,5 7,5 4 2 E 1029,3 2,2 0 0,0
19.10.2018 23:00:00 7,7 7,3 5 3 E 1029,3 0,3 0 0,0
19.10.2018 22:00:00 9,2 8,1 4 2 WNW 1028,7 8 0 0,0
19.10.2018 21:00:00 11,1 10,4 4 2 E 1028,6 15 0 0,0
19.10.2018 20:00:00 11,6 10,2 2 1 NW 1028,2 14 0 0,0
19.10.2018 19:00:00 13,4 11,8 2 1 SSE 1027,6 20 0 0,0
19.10.2018 18:00:00 14,4 11,6 2 1 SE 1027,1 23 0 0,0
19.10.2018 17:00:00 15,5 11,4 5 3 SE 1026,5 30 0 0,0
19.10.2018 16:00:00 16,3 9,9 4 2 N 1026,3 30 0 0,0
19.10.2018 15:00:00 16,4 9,5 4 2 ENE 1026,2 30 36 0,0
19.10.2018 14:00:00 16,6 10,7 4 2 N 1026,2 30 60 0,0
19.10.2018 13:00:00 15,4 11,0 4 2 WNW 1026,7 25 60 0,0
19.10.2018 12:00:00 12,6 9,6 4 2 N 1026,9 21 60 0,0
19.10.2018 11:00:00 11,1 9,5 4 2 W 1026,6 17 60 0,0
19.10.2018 10:00:00 8,0 8,0 2 1 N 1026,7 9 54 0,0
19.10.2018 09:00:00 5,1 5,1 4 2 E 1026,4 0,8 6 0,0
19.10.2018 08:00:00 3,5 3,4 4 2 ENE 1026,1 0,2 0 0,0
19.10.2018 07:00:00 3,5 3,4 4 2 ENE 1026,0 0,3 0 0,0
19.10.2018 06:00:00 3,0 2,7 4 2 NE 1025,7 0,3 0 0,0
19.10.2018 05:00:00 5,2 5,2 2 1 NNW 1025,9 0,1 0 0,0
19.10.2018 04:00:00 5,0 4,9 4 2 NNE 1025,8 1,7 0 0,0
19.10.2018 03:00:00 5,2 5,0 4 2 NE 1026,0 0,4 0 0,0
19.10.2018 02:00:00 6,6 6,5 4 2 E 1026,1 4,1 0 0,0
19.10.2018 01:00:00 6,2 5,9 2 1 E 1026,6 3,1 - 0,0
19.10.2018 00:00:00 5,9 5,4 2 1 NE 1026,3 1,2 0 0,0
18.10.2018 23:00:00 7,3 6,3 2 1 NE 1026,1 7 0 0,0
18.10.2018 22:00:00 9,2 8,0 5 3 NNE 1026,0 13 0 0,0
18.10.2018 21:00:00 8,2 7,1 0 0 N 1026,1 11 0 0,0
18.10.2018 20:00:00 9,4 8,0 4 2 ENE 1026,1 13 0 0,0
18.10.2018 19:00:00 10,8 8,4 4 2 NE 1025,8 16 0 0,0
18.10.2018 18:00:00 13,2 8,9 8 4 NE 1025,6 23 48 0,0
18.10.2018 17:00:00 14,6 9,0 15 8 ENE 1025,6 27 60 0,0
18.10.2018 16:00:00 15,0 8,7 13 7 NE 1025,5 30 60 0,0
18.10.2018 15:00:00 15,2 8,9 15 8 ENE 1025,8 30 60 0,0
18.10.2018 14:00:00 15,1 8,7 13 7 NE 1026,3 35 60 0,0
18.10.2018 13:00:00 15,0 9,4 11 6 NE 1026,7 30 60 0,0
18.10.2018 12:00:00 14,0 9,9 9 5 NE 1027,2 25 60 0,0
18.10.2018 11:00:00 12,6 9,3 11 6 NNE 1027,4 25 36 0,0
18.10.2018 10:00:00 10,7 8,0 8 4 NNE 1027,3 26 0 0,0
18.10.2018 09:00:00 10,6 7,4 9 5 NNE 1027,0 30 6 0,0
18.10.2018 08:00:00 9,6 6,4 8 4 NE 1026,4 30 0 0,0
18.10.2018 07:00:00 10,9 6,9 8 4 NE 1025,8 30 0 0,0
18.10.2018 06:00:00 11,4 8,6 8 4 NNE 1025,4 28 0 0,0
18.10.2018 05:00:00 11,8 9,2 8 4 NE 1025,5 23 0 0,0
18.10.2018 04:00:00 11,8 9,3 9 5 NNE 1025,5 22 0 0,0
18.10.2018 03:00:00 12,2 9,5 9 5 NNE 1025,3 22 0 0,0
18.10.2018 02:00:00 12,8 10,0 9 5 NNE 1024,9 19 0 0,0
18.10.2018 01:00:00 13,2 10,3 9 5 NE 1024,7 19 - 0,0
18.10.2018 00:00:00 13,3 11,3 8 4 N 1024,3 18 0 0,0
17.10.2018 23:00:00 13,4 11,1 9 5 NNE 1024,0 19 0 0,0
17.10.2018 22:00:00 12,8 10,7 0 0 N 1023,5 23 0 0,0
17.10.2018 21:00:00 13,1 10,4 5 3 NNW 1023,0 26 0 0,0
17.10.2018 20:00:00 13,1 10,3 5 3 N 1022,1 27 0 0,0
17.10.2018 19:00:00 13,2 10,2 5 3 N 1021,6 28 0 0,0
17.10.2018 18:00:00 13,5 9,5 5 3 N 1020,9 30 0 0,0
17.10.2018 17:00:00 13,4 9,6 8 4 NE 1020,3 30 0 0,0
17.10.2018 16:00:00 13,6 10,2 11 6 ENE 1019,8 35 0 0,0
17.10.2018 15:00:00 13,5 11,4 8 4 NNE 1019,7 8 0 0,0
17.10.2018 14:00:00 13,4 10,9 8 4 NNE 1019,5 19 0 0,0
17.10.2018 13:00:00 13,0 11,7 15 8 N 1019,5 6 0 0,0
17.10.2018 12:00:00 14,7 12,3 8 4 NNE 1019,1 22 0 0,0
17.10.2018 11:00:00 14,4 12,6 5 3 NNW 1018,7 35 0 0,0
17.10.2018 10:00:00 13,3 12,1 2 1 N 1018,4 30 0 0,0
17.10.2018 09:00:00 12,6 11,9 4 2 NNW 1018,0 10 0 0,0
17.10.2018 08:00:00 12,5 11,6 4 2 ESE 1017,5 26 0 0,0
17.10.2018 07:00:00 12,4 11,9 2 1 NNW 1017,1 21 0 0,0
17.10.2018 06:00:00 12,5 12,0 4 2 ESE 1016,8 10 0 0,0
17.10.2018 05:00:00 12,7 11,9 9 5 NW 1016,6 15 0 0,2
17.10.2018 04:00:00 13,7 12,5 11 6 S 1016,3 27 0 0,0
17.10.2018 03:00:00 13,6 12,5 11 6 S 1016,5 13 0 0,0
17.10.2018 02:00:00 13,3 12,3 9 5 S 1016,6 14 0 0,0
17.10.2018 01:00:00 13,1 12,3 9 5 S 1016,8 5 - 0,0
17.10.2018 00:00:00 13,0 11,5 8 4 S 1017,0 8 0 0,0
16.10.2018 23:00:00 12,6 11,1 11 6 S 1017,0 19 0 0,0
16.10.2018 22:00:00 11,6 10,5 9 5 S 1017,1 19 0 0,0
16.10.2018 21:00:00 10,5 9,7 5 3 S 1016,9 9 0 0,0
16.10.2018 20:00:00 11,2 9,7 9 5 SSE 1016,8 24 0 0,0
16.10.2018 19:00:00 12,0 9,9 9 5 SSW 1016,5 35 0 0,0
16.10.2018 18:00:00 14,0 11,1 9 5 SW 1016,2 50 0 0,0
16.10.2018 17:00:00 14,0 11,9 8 4 S 1015,9 40 0 0,0
16.10.2018 16:00:00 14,2 11,4 11 6 SW 1015,9 45 0 0,0
16.10.2018 15:00:00 14,3 11,2 15 8 SW 1015,9 40 0 0,0
16.10.2018 14:00:00 14,9 10,9 21 11 SW 1015,6 50 24 0,0
16.10.2018 13:00:00 16,6 12,3 16 9 SW 1015,3 50 36 0,0
16.10.2018 12:00:00 15,6 13,7 9 5 WSW 1015,4 28 0 0,0
16.10.2018 11:00:00 14,9 13,4 11 6 SW 1015,2 22 0 0,0
16.10.2018 10:00:00 14,5 14,2 5 3 W 1014,8 4,8 0 0,0
16.10.2018 09:00:00 13,6 13,5 4 2 SSW 1014,8 4,5 0 0,2
16.10.2018 08:00:00 13,1 12,9 11 6 E 1014,5 3,4 0 0,2
16.10.2018 07:00:00 13,1 12,8 4 2 NW 1014,2 2,2 0 0,0
16.10.2018 06:00:00 13,2 12,8 2 1 W 1013,7 4,2 0 0,0
16.10.2018 05:00:00 13,2 12,7 8 4 ENE 1013,3 5 0 0,0
16.10.2018 04:00:00 13,2 12,7 4 2 NW 1013,5 5 0 0,0
16.10.2018 03:00:00 13,3 12,7 4 2 NNE 1013,6 6 0 0,0
16.10.2018 02:00:00 12,8 12,5 2 1 ENE 1013,7 6 0 0,0
16.10.2018 01:00:00 12,2 11,9 4 2 NE 1013,6 3,6 - 0,0
16.10.2018 00:00:00 12,1 11,7 2 1 NNE 1014,0 3,7 0 0,0
15.10.2018 23:00:00 12,3 11,8 2 1 N 1014,0 4,7 0 0,0
15.10.2018 22:00:00 12,1 11,6 8 4 NNE 1013,5 6 0 0,0
15.10.2018 21:00:00 12,1 11,5 5 3 NE 1012,9 8 0 0,0
15.10.2018 20:00:00 11,5 11,1 4 2 N 1012,9 12 0 0,0
15.10.2018 19:00:00 11,3 10,8 8 4 NNE 1012,7 18 0 0,2
15.10.2018 18:00:00 11,2 10,8 5 3 NE 1012,5 4,6 0 0,8
15.10.2018 17:00:00 11,2 10,6 11 6 NNE 1012,0 2,3 0 0,2
15.10.2018 16:00:00 12,0 10,3 9 5 N 1011,2 35 0 0,0
15.10.2018 15:00:00 12,7 10,4 13 7 NE 1010,8 45 0 0,0
15.10.2018 14:00:00 12,7 10,5 21 11 NE 1010,4 50 18 0,0
15.10.2018 13:00:00 11,7 10,5 13 7 NE 1010,7 14 0 0,0
15.10.2018 12:00:00 10,8 10,0 11 6 NE 1010,7 4,5 0 0,0
15.10.2018 11:00:00 10,9 9,3 15 8 NNE 1010,2 45 0 0,0
15.10.2018 10:00:00 10,6 8,9 11 6 NNE 1009,8 45 0 0,0
15.10.2018 09:00:00 10,4 8,8 13 7 NE 1009,3 40 0 0,0
15.10.2018 08:00:00 9,9 8,7 11 6 NNE 1008,9 35 0 0,2
15.10.2018 07:00:00 9,6 8,9 11 6 NNE 1008,6 7 0 0,0
15.10.2018 06:00:00 9,7 8,6 9 5 NNE 1008,3 14 0 0,0
15.10.2018 05:00:00 9,5 8,6 11 6 NNE 1008,1 3,9 0 0,2
15.10.2018 04:00:00 9,7 8,1 15 8 NNE 1007,8 19 0 0,0
15.10.2018 03:00:00 9,9 7,6 16 9 NNE 1008,0 21 0 0,0
15.10.2018 02:00:00 9,9 7,4 15 8 NNE 1008,5 26 0 0,0
15.10.2018 01:00:00 9,9 7,1 15 8 N 1008,6 30 - 0,0
15.10.2018 00:00:00 9,9 7,2 9 5 NNE 1008,7 35 0 0,0
14.10.2018 23:00:00 10,1 7,1 9 5 NNE 1009,0 35 0 0,0
14.10.2018 22:00:00 10,2 7,0 13 7 NNE 1008,6 40 0 0,0
14.10.2018 21:00:00 10,4 7,1 11 6 NNE 1008,7 40 0 0,0
14.10.2018 20:00:00 10,9 7,3 11 6 NNE 1008,7 30 0 0,0
14.10.2018 19:00:00 10,8 7,6 11 6 N 1008,7 40 0 0,0
14.10.2018 18:00:00 11,2 7,5 13 7 N 1008,4 40 0 0,0
14.10.2018 17:00:00 11,6 7,4 15 8 NNE 1008,1 50 0 0,0
14.10.2018 16:00:00 11,9 8,3 15 8 NNE 1007,7 50 24 0,0
14.10.2018 15:00:00 12,0 8,5 15 8 NNE 1007,2 50 12 0,0
14.10.2018 14:00:00 11,3 9,0 15 8 NNE 1007,1 40 0 0,0
14.10.2018 13:00:00 11,4 9,2 15 8 NNE 1007,0 50 0 0,4
14.10.2018 12:00:00 11,1 9,9 13 7 NNE 1007,2 13 0 1,0
14.10.2018 11:00:00 11,1 9,8 9 5 N 1007,9 7 0 0,6
14.10.2018 10:00:00 11,1 9,7 16 9 N 1006,8 14 0 1,0
14.10.2018 09:00:00 11,0 10,5 8 4 NNW 1007,1 5 0 2,8
14.10.2018 08:00:00 11,0 10,5 8 4 NNW 1005,9 4,0 0 2,6
14.10.2018 07:00:00 11,0 10,4 4 2 W 1006,1 3,3 0 1,4
14.10.2018 06:00:00 11,4 10,4 8 4 NNE 1005,4 10 0 1,8
14.10.2018 05:00:00 12,0 11,2 9 5 NNW 1005,7 9 0 0,2
14.10.2018 04:00:00 12,3 11,6 5 3 N 1006,5 18 0 0,6
14.10.2018 03:00:00 12,4 11,4 4 2 WNW 1006,7 20 0 0,4

tt = Température de l'air
td = dewpoint
ff = Vitesse du vent
dd = Direction du vent
ppp = reduced air pressure
vv = visibility
sd = Ensoleillement
rr = Quantités de précipitations

stations d'obs. à proximité